Regional Weather Roundup
Issued by NWS

Home | Current Version | Previous Version | Graphics & Text | Print | Product List | Glossary On
Versions: 1 2 3 4 5 6 7 8 9 10 11 12 13 14 15 16 17 18 19 20 21 22 23 24 25 26 27 28 29 30 31 32 33 34 35 36 37 38 39 40 41 42 43 44 45 46 47 48 49 50
000
ASUS43 KBIS 291320
RWRND

NORTH DAKOTA REGIONAL WEATHER ROUNDUP
NATIONAL WEATHER SERVICE BISMARCK ND
700 AM CST THU JAN 29 2015

NOTE: "FAIR" INDICATES FEW OR NO CLOUDS BELOW 12,000 FEET WITH NO
SIGNIFICANT WEATHER AND/OR OBSTRUCTIONS TO VISIBILITY.


NDZ001>003-009>011-017-291400-
NORTHWEST NORTH DAKOTA

CITY           SKY/WX    TMP DP  RH WIND       PRES   REMARKS
WILLISTON      CLOUDY    24  18  77 NW8       30.45R WCI  15
MINOT          CLOUDY    23  17  78 NW15G25   30.40R WCI  10
MINOT AFB      CLOUDY    21  21  98 N16       30.41R WCI   7
$$

NDZ018>021-031>035-040>046-291400-
SOUTHWEST NORTH DAKOTA

CITY           SKY/WX    TMP DP  RH WIND       PRES   REMARKS
BISMARCK       CLOUDY    27  19  72 NW15G26   30.41R WCI  15
DICKINSON      CLOUDY    27  21  78 NW16G23   30.38R WCI  15
GARRISON         N/A     25  20  81 NW17      30.39R WCI  12
HETTINGER ARPT MOCLDY    25  21  85 NW12      30.39S WCI  14
$$

NDZ004>008-012>016-024-026-027-054-291400-
NORTHEAST NORTH DAKOTA

CITY           SKY/WX    TMP DP  RH WIND       PRES   REMARKS
GRAND FORKS    CLOUDY    17  10  74 N23G31    30.35R WCI  -1
GRND FRKS AFB  FLURRIES  16  10  79 N17G26    30.37R WCI   0
DEVILS LAKE    CLOUDY    18  10  73 N20G25    30.36R WCI   1
$$

NDZ022-023-025-028>030-036>039-047>053-291400-
SOUTHEAST NORTH DAKOTA

CITY           SKY/WX    TMP DP  RH WIND       PRES   REMARKS
FARGO          CLOUDY    21  13  71 N25G33    30.32R WCI   4
JAMESTOWN      CLOUDY    24  19  81 NW20G32   30.33R WCI  10
$$




USA.gov is the U.S. government's official web portal to all federal, state and local government web resources and services.